Вернуться в каталог

FALCON HEAVY R/B

АктивенVLEO
NORAD 61508·ROCKET BODY·🇺🇸 United States

Запущен Oct 14, 2024 с Cape Canaveral Space Force Station

Loading…

Ближайшие Пролёты (ближайшие 24 часа)

TLE

УстаревшееSource: Space-Track

Эпоха: Oct 14, 2024, 16:13 UTC

1 61508U 24182B   24288.67632810  .00000840 -26562-5  00000-0 0  9993
2 61508  31.9400  67.0176 0018900  60.7600  70.5300 16.38814738    07

Отслеживайте FALCON HEAVY R/B в реальном времени с AllMySat

Download on the App Store